Tracking 18850 objects as of 22-Nov-2017
HD Live streaming from Space Station
objects crossing your sky now

INTELSAT 502

Track INTELSAT 502 now!
INTELSAT 502 is classified as:


NORAD ID: 12089
Int'l Code: 1980-098A
Perigee: 36,113.6 km
Apogee: 36,258.5 km
Inclination: 15.0 °
Period: 1,456.2 minutes
Semi major axis: 42557 km
RCS: 13.5237 m2 (large)
Launch date: December 6, 1980
Source: International Telecommunications Satellite Organization (ITSO)
Launch site: AIR FORCE EASTERN TEST RANGE (AFETR)
aabbcc
Your satellite tracking list
Your tracking list is empty




NASA's NSSDC Master Catalog

Two Line Element Set (TLE):
1 12089U 80098A   17326.11246226  .00000031  00000-0  00000+0 0  9991
2 12089  15.0192 352.8451 0017020 254.2136  84.6129  0.98888489102769
Source of the keplerian elements: AFSPC